Regional Weather Roundup
Issued by NWS

Home | Current Version | Previous Version | Graphics & Text | Print | Product List | Glossary On
Versions: 1 2 3 4 5 6 7 8 9 10 11 12 13 14 15 16 17 18 19 20 21 22 23 24 25 26 27 28 29 30 31 32 33 34 35 36 37 38 39 40 41 42 43 44 45 46 47 48 49 50
000
ASUS43 KLSX 300207
RWRMO
STLRWRMO ALL

WEATHER SUMMARY FOR MISSOURI
NATIONAL WEATHER SERVICE SPRINGFIELD MO
900 PM CDT MON MAY 29 2017

NOTE: "FAIR" INDICATES FEW OR NO CLOUDS BELOW 12,000 FEET WITH NO
       SIGNIFICANT WEATHER AND/OR OBSTRUCTIONS TO VISIBILITY.
       CURRENT SKY AND/OR WEATHER CONDITIONS ARE NOT AVAILABLE FOR
       CHILLICOTHE AND FARMINGTON.

MOZ001>031-035>038-043-044-053-054-300300-
...NORTHERN AND WESTERN MISSOURI...

CITY           SKY/WX    TMP DP  RH WIND       PRES   REMARKS
KANSAS CTY INT PTCLDY    68  47  46 N7        29.99R
KANSAS C DTWN  CLEAR     74  47  38 W3        29.97R
LEE`S SUMMIT   CLEAR     71  50  47 CALM      29.99R
ST JOSEPH      CLEAR     68  45  43 N9        29.99R
CHILLICOTHE      N/A     65  51  60 CALM      29.98R
KIRKSVILLE     CLEAR     62  45  53 NW5       29.97S

$$
MOZ066>068-077>081-088>096-101>105-300300-
...SOUTHWEST MISSOURI...

CITY           SKY/WX    TMP DP  RH WIND       PRES   REMARKS
SPRINGFIELD    CLEAR     72  58  61 CALM      29.99R
JOPLIN         CLEAR     72  56  57 CALM      29.99R
BRANSON        CLEAR     70  59  68 CALM      30.02R

$$
MOZ032>034-039>042-045>050-055>058-069>072-300300-
...CENTRAL MISSOURI...

CITY           SKY/WX    TMP DP  RH WIND       PRES   REMARKS
COLUMBIA       CLEAR     71  53  52 NW3       29.97R
JEFFERSON CITY PTCLDY    74  54  49 CALM      29.95R
ROLLA          CLEAR     65  52  62 W5        29.97R
SEDALIA        CLEAR     71  54  54 W5        29.98S
WHITEMAN AFB   CLEAR     72  51  48 NW3       29.97R
WARRENSBURG    CLEAR     70  48  46 W5        29.98R
OSAGE BEACH    CLEAR     64  57  78 CALM      29.98R

$$
MOZ051-052-059>065-300300-
...EAST CENTRAL MISSOURI...

CITY           SKY/WX    TMP DP  RH WIND       PRES   REMARKS
ST LOUIS INTL  PTCLDY    73  57  57 CALM      29.96R
SPIRIT OF STL  PTCLDY    63  61  93 SW3       29.94R
ST CHARLES     CLEAR     70  53  54 NW3       29.94R

$$
MOZ072>076-082>087-097>100-106>115-300300-
...SOUTH CENTRAL AND SOUTHEAST MISSOURI...

CITY           SKY/WX    TMP DP  RH WIND       PRES   REMARKS
CAPE GIRARDEAU MOCLDY    76  59  55 SW8       29.94R
FARMINGTON     CLEAR     71  57  61 CALM      29.99R
POPLAR BLUFF   PTCLDY    74  62  66 SW5       29.96R
WEST PLAINS    CLEAR     69  58  67 CALM      30.01R

$$




USA.gov is the U.S. government's official web portal to all federal, state and local government web resources and services.